SCP
0 0 0 0 0 0 0 0 0 0 0 0 0 0 0 0 0 0 0 0 0 0 0 0 0 0 0 0 0 0 0 0 0 0 0 0 0 0 0 0 0 0 0
0 0 0 0 0 0 0 0 0 0 0 0 0 0 0 0 0 0 0 0 0 0 0 0 0 0 0 0 0 0 0 0 0 0 0 0 0 0 0 0 0 0 0
0 0 0 0 0 0 0 0 0 0 0 0 0 0 0 0 0 0 0 0 0 0 0 0 0 0 0 0 0 0 0 0 0 0 0 0 0 0 0 0 0 0 0
0 0 0 0 0 0 0 0 0 0 0 0 0 0 0 0 0 0 0 0 0 0 0 0 0 0 0 0 0 0 0 0 0 0 0 0 0 0 0 0 0 0 0
0 0 0 0 0 0 0 0 0 0 0 0 0 0 0 0 0 0 0 0 0 0 0 0 0 0 0 0 0 0 0 0 0 0 0 0 0 0 0 0 0 0 0
0 0 0 0 0 0 0 0 0 0 0 0 0 0 0 0 0 0 0 0 0 0 0 0 0 0 0 0 0 0 0 0 0 0 0 0 0 0 0 0 0 0 0
0 0 0 0 0 0 0 0 0 0 0 0 0 0 0 0 0 0 0 0 0 0 0 0 0 0 0 0 0 0 0 0 0 0 0 0 0 0 0 0 0 0 0
0 0 0 0 0 0 0 0 0 0 0 0 0 0 0 0 0 0 0 0 0 0 0 0 0 0 0 0 0 0 0 0 0 0 0 0 0 0 0 0 0 0 0
0 0 0 0 0 0 0 0 0 0 0 0 0 0 0 0 0 0 0 0 0 0 0 0 0 0 0 0 0 0 0 0 0 0 0 0 0 0 0 0 0 0 0
0 0 0 0 0 0 0 0 0 0 0 0 0 0 0 0 0 0 0 0 0 0 0 0 0 0 0 0 0 0 0 0 0 0 0 0 0 0 0 0 0 0 0
0 0 0 0 0 0 0 0 0 0 0 0 0 0 0 0 0 0 0 0 0 0 0 0 0 0 0 0 0 0 0 0 0 0 0 0 0 0 0 0 0 0 0
0 0 0 0 0 0 0 0 0 0 0 0 0 0 0 0 0 0 0 0 0 0 0 0 0 0 0 0 0 0 0 0 0 0 0 0 0 0 0 0 0 0 0
0 0 0 0 0 0 0 0 0 0 0 0 0 0 0 0 0 0 0 0 0 0 0 0 0 0 0 0 0 0 0 0 0 0 0 0 0 0 0 0 0 0 0
0 0 0 0 0 0 0 0 0 0 0 0 0 0 0 0 0 0 0 0 0 0 0 0 0 0 0 0 0 0 0 0 0 0 0 0 0 0 0 0 0 0 0
0 0 0 0 0 0 0 0 0 0 0 0 0 0 0 0 0 0 0 0 0 0 0 0 0 0 0 0 0 0 0 0 0 0 0 0 0 0 0 0 0 0 0
0 0 0 0 0 0 0 0 0 0 0 0 0 0 0 0 0 0 0 0 0 0 0 0 0 0 0 0 0 0 0 0 0 0 0 0 0 0 0 0 0 0 0
0 0 0 0 0 0 0 0 0 0 0 0 0 0 0 0 0 0 0 0 0 0 0 0 0 0 0 0 0 0 0 0 0 0 0 0 0 0 0 0 0 0 0
0 0 0 0 0 0 0 0 0 0 0 0 0 0 0 0 0 0 0 0 0 0 0 0 0 0 0 0 0 0 0 0 0 0 0 0 0 0 0 0 0 0 0
0 0 0 0 0 0 0 0 0 0 0 0 0 0 0 0 0 0 0 0 0 0 0 0 0 0 0 0 0 0 0 0 0 0 0 0 0 0 0 0 0 0 0
0 0 0 0 0 0 0 0 0 0 0 0 0 0 0 0 0 0 0 0 0 0 0 0 0 0 0 0 0 0 0 0 0 0 0 0 0 0 0 0 0 0 0
0 0 0 0 0 0 0 0 0 0 0 0 0 0 0 0 0 0 0 0 0 0 0 0 0 0 0 0 0 0 0 0 0 0 0 0 0 0 0 0 0 0 0
0 0 0 0 0 0 0 0 0 0 0 0 0 0 0 0 0 0 0 0 0 0 0 0 0 0 0 0 0 0 0 0 0 0 0 0 0 0 0 0 0 0 0
0 0 0 0 0 0 0 0 0 0 0 0 0 0 0 0 0 0 0 0 0 0 0 0 0 0 0 0 0 0 0 0 0 0 0 0 0 0 0 0 0 0 0
0 0 0 0 0 0 0 0 0 0 0 0 0 0 0 0 0 0 0 0 0 0 0 0 0 0 0 0 0 0 0 0 0 0 0 0 0 0 0 0 0 0 0
0 0 0 0 0 0 0 0 0 0 0 0 0 0 0 0 0 0 0 0 0 0 0 0 0 0 0 0 0 0 0 0 0 0 0 0 0 0 0 0 0 0 0
0 0 0 0 0 0 0 0 0 0 0 0 0 0 0 0 0 0 0 0 0 0 0 0 0 0 0 0 0 0 0 0 0 0 0 0 0 0 0 0 0 0 0
Wind_Speed
8 9 10 8 6 4 2 2 4 4 5 4 4 4 5 4 4 6 8 9 9 10 11 10 8 8 10 11 11 8 8 8 4 3 5 7 10 13 13 12 11 13 13
11 12 11 10 8 5 3 1 2 3 5 4 3 3 3 3 4 5 7 10 11 11 11 12 10 9 9 10 10 9 6 5 6 6 3 5 5 7 12 11 12 13 10
8 9 10 9 8 7 4 1 1 2 3 3 2 1 0 1 2 4 6 9 11 12 12 13 12 11 11 11 13 12 11 10 7 8 7 5 8 4 4 7 9 9 9
6 7 8 9 8 6 4 3 1 0 2 3 3 5 5 6 7 5 5 6 9 12 13 13 13 12 11 13 13 13 12 11 10 6 10 10 5 4 6 4 5 7 9
5 6 7 6 6 6 5 4 3 2 0 2 3 4 6 7 6 4 6 6 7 10 12 13 12 13 12 13 14 12 13 12 13 10 6 10 9 8 8 10 6 4 7
5 6 6 6 7 7 6 6 5 4 2 1 3 4 7 8 8 8 7 7 5 6 10 11 12 13 12 13 15 14 13 14 15 13 10 8 7 9 11 15 11 9 7
4 5 7 8 8 8 7 6 6 5 4 3 3 5 7 7 9 9 8 8 6 6 9 9 11 11 13 14 13 13 14 15 15 16 14 13 14 8 8 12 12 10 6
3 4 5 5 6 6 7 7 6 5 5 4 5 5 6 5 6 8 7 8 7 8 8 8 10 12 13 13 13 12 14 13 16 17 17 14 13 12 12 11 9 10 8
3 3 4 5 5 6 6 6 6 6 6 6 6 6 6 5 7 8 7 7 8 8 9 9 9 10 11 13 12 11 14 14 15 15 16 16 13 12 13 12 12 12 12
3 4 4 4 4 5 5 6 5 5 6 6 6 6 6 6 7 7 8 9 9 9 9 9 10 10 11 11 11 11 12 14 14 12 15 16 13 12 12 12 12 13 14
3 3 3 4 5 5 6 6 6 6 7 7 7 7 7 7 7 7 9 9 9 9 10 10 10 10 11 10 10 12 12 14 15 14 15 18 15 13 12 12 12 13 13
2 3 4 5 6 6 7 7 7 7 7 7 7 8 8 8 9 9 10 10 10 10 10 10 11 11 11 10 11 13 13 13 15 15 15 17 13 16 14 12 15 14 14
3 4 4 5 6 7 7 7 8 8 8 8 8 9 9 9 10 11 11 10 11 11 11 10 11 12 11 11 11 12 13 13 14 14 14 15 14 16 14 14 15 13 13
3 4 5 6 7 7 7 8 8 8 8 8 9 10 10 10 11 11 11 11 11 11 12 11 12 12 12 11 11 12 13 13 14 14 14 14 14 16 15 14 16 14 14
5 6 6 7 7 8 8 8 9 9 8 9 10 11 11 11 11 12 12 12 11 12 12 12 12 12 10 10 11 11 13 13 14 13 13 14 18 21 18 14 12 13 13
6 7 8 8 9 9 9 9 9 9 9 10 11 12 12 12 12 12 12 12 12 12 12 12 13 13 11 19 25 20 12 12 12 13 12 13 17 21 26 28 26 21 16
7 8 8 8 9 9 9 9 10 10 10 11 12 12 13 13 13 13 13 13 13 12 12 12 12 14 15 24 26 27 17 12 11 11 11 10 11 17 13 18 25 24 28
6 7 7 9 9 9 9 10 10 10 11 12 13 13 13 14 14 13 13 13 12 12 13 13 13 13 16 25 26 26 17 11 10 10 11 11 11 12 13 11 13 13 14
6 7 7 9 9 10 10 10 11 11 12 13 13 13 13 14 15 15 15 13 13 13 13 13 13 14 16 23 26 25 11 9 10 10 10 11 11 18 21 14 12 12 11
6 7 8 9 10 11 10 11 12 12 13 14 14 14 13 14 15 16 16 14 12 14 14 13 12 14 14 21 25 24 9 9 9 8 9 16 16 19 21 12 10 12 10
8 8 9 9 10 11 10 12 13 14 14 14 14 14 13 13 14 15 13 13 13 14 14 14 13 12 15 19 23 23 11 8 9 8 7 8 17 20 20 16 10 13 11
9 9 9 11 11 10 10 13 14 14 14 14 14 14 14 13 13 14 14 13 12 14 14 13 13 9 10 15 18 22 21 17 10 8 7 8 17 19 18 13 13 17 13
10 9 10 12 12 10 9 13 15 14 14 15 15 15 14 13 12 13 14 13 11 11 11 11 11 10 8 10 20 21 21 21 12 8 14 16 18 16 12 14 16 12 6
10 10 11 13 14 12 11 12 14 14 14 15 15 14 14 14 12 10 10 10 10 11 11 11 11 11 9 8 7 8 9 13 11 9 12 16 15 12 11 10 8 5 4
10 10 11 13 15 14 13 12 12 12 14 15 14 14 12 13 12 10 10 11 10 12 15 11 10 11 11 13 20 15 8 7 8 8 6 5 4 5 4 4 4 4 4
10 11 12 13 15 14 15 13 12 11 13 14 13 11 11 11 11 12 12 15 17 22 23 22 19 14 18 23 23 22 21 21 19 11 6 5 5 5 5 5 4 4 5
Wind_Direction
342 2 16 27 43 52 85 159 176 174 158 161 181 201 225 222 223 223 220 214 214 211 214 227 220 208 217 224 218 218 223 230 206 239 275 261 241 240 238 234 234 235 232
0 7 15 25 30 32 34 67 175 176 179 181 171 186 200 219 221 224 226 221 220 219 220 225 228 218 223 228 221 210 212 221 184 190 232 293 294 244 236 231 231 234 230
2 360 8 16 21 19 7 8 213 189 187 171 146 129 99 302 259 234 233 229 226 225 226 228 228 225 221 229 226 218 215 227 211 198 193 218 247 291 259 233 232 229 225
9 8 9 11 13 4 5 13 17 146 176 168 177 196 216 237 241 235 237 234 224 228 228 231 230 230 226 230 231 223 220 222 227 211 220 227 206 228 288 264 241 233 229
15 13 10 8 11 9 16 17 21 26 92 189 205 219 241 252 267 268 259 252 236 231 231 231 231 233 232 233 234 229 222 220 227 218 206 227 236 228 244 268 255 240 229
17 15 11 16 14 13 18 19 20 11 355 267 237 235 251 263 276 277 272 268 254 242 237 234 233 235 235 235 235 234 228 227 227 227 217 205 207 209 218 243 252 251 232
22 13 12 11 8 8 9 10 14 1 346 318 277 257 256 261 264 271 272 273 270 259 249 237 236 237 238 239 237 235 233 231 229 229 229 227 228 215 214 234 250 251 242
16 12 11 11 4 4 5 4 1 348 339 327 304 285 271 264 265 268 268 269 268 266 261 247 241 240 240 240 238 237 237 235 233 234 231 233 232 225 223 227 239 259 257
3 8 10 10 2 358 354 349 345 337 332 326 316 307 297 283 277 278 274 271 269 272 268 260 255 251 246 243 240 240 239 236 235 235 233 234 234 229 229 227 223 235 258
2 6 4 355 345 341 335 338 337 327 319 320 313 306 299 291 285 285 284 280 277 274 273 270 265 261 255 249 245 246 244 241 239 235 235 235 235 232 228 227 226 225 238
350 350 341 333 332 335 337 334 331 327 323 320 313 308 302 298 294 287 283 282 281 278 274 272 270 267 263 256 251 250 247 246 247 242 238 239 234 233 230 227 226 227 227
349 339 334 337 338 335 332 328 323 319 312 309 307 303 300 299 296 291 288 285 283 280 276 275 272 270 266 260 255 257 254 249 249 246 242 243 238 235 232 228 228 228 225
350 342 339 335 329 325 322 319 315 309 307 307 306 305 303 300 296 293 292 289 286 284 280 276 274 272 268 264 259 258 258 254 252 250 245 245 239 239 235 230 231 230 229
338 334 328 322 319 316 313 311 308 306 307 307 305 302 300 297 294 292 291 288 286 285 284 279 275 272 270 267 264 262 261 260 257 253 249 246 240 240 237 235 233 230 229
333 327 321 317 315 314 312 308 306 306 306 306 304 300 297 295 292 291 290 288 285 284 282 282 279 275 272 269 266 261 259 259 259 256 251 247 247 245 243 239 234 227 229
320 319 318 316 313 309 307 307 305 306 305 302 300 299 298 297 294 292 292 291 289 287 285 282 281 279 277 283 286 285 270 259 257 258 254 252 257 258 258 254 246 232 225
314 313 311 306 304 303 303 304 300 303 303 299 298 298 297 295 294 294 294 292 291 289 287 283 280 280 280 287 290 289 286 271 262 257 257 258 255 259 252 256 258 253 241
309 307 305 305 304 301 301 299 299 300 299 298 297 295 295 296 297 296 294 293 291 290 289 287 284 283 285 292 294 294 290 278 267 259 257 258 258 254 253 245 246 247 248
296 294 293 295 297 298 298 300 300 299 299 299 298 297 298 300 301 300 298 297 295 294 291 289 287 287 289 293 295 294 283 275 269 262 256 257 255 259 262 255 247 247 245
297 296 296 298 298 297 300 302 302 302 301 300 299 300 299 299 299 298 297 296 294 294 295 292 289 287 287 291 295 296 285 279 276 268 259 264 264 264 264 254 243 246 243
296 297 298 297 294 297 302 300 300 298 297 298 299 299 298 296 295 295 295 295 296 296 295 293 290 286 287 294 297 298 292 278 277 274 268 260 269 270 268 261 244 246 243
298 297 296 295 295 295 296 297 298 298 300 301 301 301 300 298 299 297 297 297 298 298 297 297 297 290 288 294 296 297 296 294 284 277 272 268 275 273 271 267 257 254 250
292 292 292 295 296 291 287 291 297 301 303 302 302 302 302 299 296 297 299 301 300 298 298 298 298 299 292 291 298 301 301 300 294 279 280 282 283 282 273 269 267 260 242
294 295 297 297 299 298 291 287 294 300 301 302 303 304 303 303 300 297 296 297 299 299 298 299 299 299 297 292 288 286 291 293 291 287 284 287 287 283 274 269 270 253 230
293 293 293 295 297 300 299 297 297 300 301 302 303 303 301 300 302 299 294 296 289 292 300 299 298 300 300 298 303 303 296 291 282 288 278 272 273 267 258 252 251 241 236
292 294 294 294 297 300 300 301 300 299 301 304 305 303 302 301 301 302 301 296 297 303 304 303 302 298 298 305 309 311 310 308 302 298 282 272 264 263 258 251 245 234 230